Location: Newark
(42.7133°N, 87.7910°W)
Time: 20:07:12
(UTC+00:00)

Tiros 1 despin weight - Visible Passes

Search period start: 15 September 2019 00:00
Search period end: 25 September 2019 00:00
Orbit: 595 x 642 km, 48.2° (Epoch: 15 September)

Date Brightness Start Highest point End Pass type
(mag) Time Alt. Az. Time Alt. Az. Time Alt. Az.
15 Sep ? 01:37:29 10° WNW 01:41:55 77° SSW 01:43:22 41° SE visible
15 Sep ? 03:20:05 10° W 03:20:25 11° W 03:20:25 11° W visible
16 Sep ? 01:54:13 10° WNW 01:58:26 44° SW 01:59:15 39° S visible
17 Sep ? 00:29:10 10° WNW 00:33:37 82° NNE 00:38:02 10° ESE visible
17 Sep ? 02:11:14 10° W 02:14:48 24° SW 02:15:14 24° SSW visible
18 Sep ? 00:45:49 10° WNW 00:50:11 61° SSW 00:54:13 12° SE visible
18 Sep ? 02:29:11 10° WSW 02:31:03 12° SW 02:31:17 12° SW visible
19 Sep ? 01:02:38 10° WNW 01:06:38 34° SW 01:10:22 11° SSE visible
20 Sep ? 01:19:53 10° W 01:22:57 18° SW 01:26:01 10° S visible
22 Sep ? 00:11:07 10° W 00:14:50 26° SW 00:18:31 10° SSE visible
23 Sep ? 00:28:48 10° WSW 00:31:05 14° SW 00:33:22 10° SSW visible
